COSMOS 2251 DEB, 35448

Orbit data source: Space-Track

COSMOS 2251 DEB, 35448 is space debris in LEO originally from a launch on Wed, 16 Jun 1993 UTC launched from the Plesetsk Missile And Space Complex (PKMTR). The debris from Iridium 33, an American commercial communications satellite, has been tracked extensively since its accidental collision with the defunct Russian satellite Cosmos 2251 in 2009. This event, occurring at high speed in low Earth orbit (LEO), generated thousands of pieces of space debris, significantly increasing the risk of further collisions. The Iridium 33 debris cloud has impacted space traffic management and orbital debris mitigation strategies, making it a subject of ongoing study in space situational awareness.

Loading next visibility...
Identifier
35448, 1993-036AKS
Orbit
LEO
Country
Flag of CISCIS
Related business
Manufacturer
Unknown
Mission
Spacecraft
Bus & Motor
Unknown
Mass
Unknown
Launch date (UTC)
1993-06-16 (33 years ago)
Launch vehicle
Unknown
Launch site
Plesetsk Missile And Space Complex (PKMTR)
Object type
Payload
Rocket body
Debris
Shape & HBR
Unknown shape, 0.1 m
Radar Cross Section
Small (<0.1 m²)

Expand to show TLE details & history
Last TLE update: 16 hours ago

TLE from 16 hours ago
0 COSMOS 2251 DEB
1 35448U 93036AKS 26034.59675493  .00005084  00000-0  11904-2 0  9992
2 35448  73.9053 348.7137 0010128 169.8781 190.2588 14.54807217881030
Epoch: 2026-02-03T14:19Z
TLE epoch observation values (Epoch: 2026-02-03T14:19:19.625Z)
Latitude
0.00004°
Longitude
0.10653°
Altitude
719.683 km
Speed
7.492 km/s
True Right ascension
23h 14m 51s
True Declination
0° 00' 00"
Sunlit
Object was in daylight at epoch
Visualization orbit readout
Latitude
Unknown
Longitude
Unknown
Altitude
Unknown
Speed
Unknown
Apparent Right ascension
Unknown
Apparent Declination
Unknown
Sunlit
N/A
Visualization observer readout
Local Sidereal Time
07:47:58
Azimuth
Unknown
Elevation
Unknown
Doppler factor
Unknown
Orbital elements
Apogee altitude
714.782 km
Perigee altitude
700.429 km
Semi-major axis
7,085.742 km
Eccentricity
0.00101
Inclination
73.9053°
RAAN
348.7137°
Arg. of periapsis
169.8781°
True anomaly
190.23816°
Mean anomaly
190.2588°
Eccentric anomaly
190.24848°
Mean motion
3.63886 °/min
Orbital period
98.93 mins
BSTAR
0.0011904
Loading maneuver chart data...
Computing Atmospheric mass density...

Documentation

Showing up to 5 results
|